Terminal Aerodrome Forecast
Issued by NWS Springfield, MO

Home | Current Version | Previous Version | Text Only | Print | Product List | Glossary On
Versions: 1 2 3 4 5 6 7 8 9 10 11 12 13 14 15 16 17 18 19 20 21 22
000
FTUS43 KSGF 261700
TAFSGF
TAF
KSGF 261720Z 2618/2718 23012KT P6SM SKC
     FM262000 26013G18KT P6SM SKC
     FM270000 30006KT P6SM SKC
     FM271500 02006KT P6SM SKC=

USA.gov is the U.S. government's official web portal to all federal, state and local government web resources and services.